Rochelle, IL

8:56 PM CST on January 20, 2017 (GMT -0600)
Rochelle

Weather History for KRPJ - May, 2013

Change the Weather History Date:

Friday, May 31, 2013

  Actual Average (KRFD) Record (KRFD)
Temperature  
Mean Temperature 66 °F -  
Max Temperature 72 °F 75 °F 106 °F (1934)
Min Temperature 61 °F 53 °F 39 °F (1931)
Cooling Degree Days 2    
Growing Degree Days 16 (Base 50)    
Moisture  
Dew Point 64 °F    
Average Humidity 87    
Maximum Humidity 97    
Minimum Humidity 74    
Precipitation  
Precipitation 0.17 in - - ()
Sea Level Pressure  
Sea Level Pressure 29.80 in    
Wind  
Wind Speed 14 mph (South)    
Max Wind Speed 26 mph    
Max Gust Speed 32 mph    
Visibility 10 miles    
Events Rain    
Averages and records for this station are not official NWS values.
T = Trace of Precipitation, MM = Missing Value Source: NWS Daily Summary

Daily Weather History Graph

Daily Weather History Graph

Search for Another Location

Airport or City:

Trip Planner

Search our weather history database for the weather conditions in past years. The results will help you decide how hot, cold, wet, or windy it might be!

Date:

Astronomy

May. 31, 2013 Rise Set
Actual Time 5:23 AM CDT 8:24 PM CDT
Civil Twilight 4:50 AM CDT 8:58 PM CDT
Nautical Twilight 4:07 AM CDT 9:40 PM CDT
Astronomical Twilight 3:17 AM CDT 10:31 PM CDT
Moon 12:54 AM CDT (5/31) 12:43 PM CDT (5/31)
Length of Visible Light 16h 07m
Length of Day
15h 00m
Waning Gibbous, 51% of the Moon is Illuminated
May 31
Waning Gibbous
May 31
Last Quarter
Jun 8
New
Jun 16
First Quarter
Jun 23
Full

Hourly Weather History & Observations

Time (CDT) Temp. Dew Point Humidity Pressure Visibility Wind Dir Wind Speed Gust Speed Precip Events Conditions
12:15 AM 62.6 °F 61.0 °F 94% 29.84 in 10.0 mi SSE 13.8 mph 19.6 mph N/A   Scattered Clouds
12:35 AM 62.2 °F 60.8 °F 95% 29.84 in 10.0 mi SSE 12.7 mph - N/A   Scattered Clouds
12:55 AM 62.6 °F 61.2 °F 95% 29.85 in 7.0 mi SSE 15.0 mph - N/A Rain Light Rain
1:15 AM 62.6 °F 61.3 °F 96% 29.85 in 4.0 mi South 13.8 mph 23.0 mph 0.04 in Rain Heavy Rain
1:35 AM 62.6 °F 61.7 °F 97% 29.83 in 5.0 mi SE 16.1 mph - 0.14 in Rain Rain
1:55 AM 62.8 °F 61.7 °F 96% 29.81 in 10.0 mi SE 13.8 mph - 0.14 in Rain Light Rain
2:15 AM 63.1 °F 61.7 °F 95% 29.81 in 10.0 mi SE 15.0 mph - 0.01 in Rain Light Rain
2:35 AM 63.5 °F 61.9 °F 94% 29.82 in 10.0 mi SSE 12.7 mph - 0.01 in   Mostly Cloudy
2:55 AM 63.9 °F 62.6 °F 96% 29.83 in 10.0 mi South 16.1 mph - 0.01 in   Overcast
3:15 AM 63.5 °F 61.3 °F 93% 29.83 in 10.0 mi South 13.8 mph - N/A   Mostly Cloudy
3:35 AM 62.8 °F 61.0 °F 94% 29.81 in 10.0 mi South 10.4 mph - N/A   Scattered Clouds
3:55 AM 62.2 °F 60.8 °F 95% 29.81 in 10.0 mi South 10.4 mph - N/A   Clear
4:15 AM 61.9 °F 60.3 °F 94% 29.82 in 10.0 mi South 10.4 mph - N/A   Scattered Clouds
4:35 AM 62.1 °F 60.8 °F 96% 29.82 in 10.0 mi South 8.1 mph - N/A   Mostly Cloudy
4:55 AM 61.7 °F 60.1 °F 94% 29.83 in 10.0 mi South 8.1 mph - N/A   Scattered Clouds
5:15 AM 61.3 °F 59.9 °F 95% 29.82 in 10.0 mi South 8.1 mph - N/A   Clear
5:35 AM 61.3 °F 59.9 °F 95% 29.82 in 10.0 mi South 8.1 mph - N/A   Scattered Clouds
5:55 AM 62.2 °F 60.8 °F 95% 29.82 in 10.0 mi South 10.4 mph - N/A   Scattered Clouds
6:15 AM 63.3 °F 61.2 °F 93% 29.81 in 10.0 mi South 11.5 mph - N/A   Scattered Clouds
6:35 AM 63.9 °F 61.2 °F 91% 29.82 in 10.0 mi South 12.7 mph - N/A   Clear
6:55 AM 65.3 °F 61.9 °F 89% 29.82 in 10.0 mi South 12.7 mph - N/A   Clear
7:15 AM 66.0 °F 63.0 °F 90% 29.82 in 10.0 mi South 15.0 mph 19.6 mph N/A   Clear
7:35 AM 67.1 °F 63.7 °F 89% 29.82 in 10.0 mi South 16.1 mph - N/A   Scattered Clouds
7:55 AM 67.1 °F 63.7 °F 89% 29.83 in 10.0 mi South 15.0 mph - N/A   Mostly Cloudy
8:15 AM 67.1 °F 63.7 °F 89% 29.84 in 10.0 mi South 17.3 mph - N/A   Overcast
8:35 AM 67.1 °F 64.2 °F 90% 29.85 in 10.0 mi South 12.7 mph - N/A   Overcast
8:55 AM 68.0 °F 64.2 °F 88% 29.85 in 10.0 mi South 18.4 mph - N/A   Overcast
9:15 AM 67.8 °F 64.0 °F 88% 29.84 in 10.0 mi South 18.4 mph 23.0 mph N/A   Mostly Cloudy
9:35 AM 68.9 °F 64.6 °F 86% 29.84 in 10.0 mi South 15.0 mph 20.7 mph N/A   Mostly Cloudy
9:55 AM 69.6 °F 65.1 °F 86% 29.85 in 7.0 mi South 21.9 mph - N/A   Overcast
10:15 AM 71.4 °F 66.0 °F 83% 29.84 in 10.0 mi SSW 24.2 mph - N/A   Scattered Clouds
10:35 AM 72.7 °F 66.9 °F 82% 29.83 in 10.0 mi SSW 20.7 mph 25.3 mph N/A   Scattered Clouds
10:55 AM 72.1 °F 65.8 °F 80% 29.83 in 10.0 mi SSW 19.6 mph 25.3 mph N/A   Clear
11:15 AM 72.1 °F 65.1 °F 78% 29.83 in 10.0 mi SSW 20.7 mph 25.3 mph N/A   Clear
11:35 AM 72.1 °F 65.5 °F 79% 29.82 in 10.0 mi SSW 19.6 mph 24.2 mph N/A   Clear
11:55 AM 71.6 °F 63.9 °F 76% 29.82 in 10.0 mi South 24.2 mph 27.6 mph N/A   Clear
12:15 PM 70.7 °F 63.3 °F 77% 29.82 in 10.0 mi SSW 24.2 mph 29.9 mph N/A   Clear
12:35 PM 70.7 °F 63.3 °F 77% 29.82 in 10.0 mi SSW 20.7 mph 26.5 mph N/A   Clear
12:55 PM 70.7 °F 61.9 °F 74% 29.82 in 10.0 mi SSW 24.2 mph 29.9 mph N/A   Clear
1:15 PM 70.7 °F 62.4 °F 75% 29.81 in 10.0 mi SSW 25.3 mph - N/A   Clear
1:35 PM 70.0 °F 61.9 °F 75% 29.81 in 10.0 mi South 24.2 mph 29.9 mph N/A   Clear
1:55 PM 69.4 °F 61.5 °F 76% 29.80 in 10.0 mi South 20.7 mph 32.2 mph N/A   Clear
2:15 PM 69.3 °F 61.0 °F 75% 29.81 in 10.0 mi South 26.5 mph 32.2 mph N/A   Clear
2:35 PM 68.0 °F 61.3 °F 79% 29.83 in 10.0 mi SSW 18.4 mph - N/A   Light Drizzle
2:55 PM 68.5 °F 61.7 °F 79% 29.84 in 10.0 mi SSW 19.6 mph - N/A   Light Drizzle
3:15 PM 69.3 °F 61.0 °F 75% 29.83 in 10.0 mi SSW 23.0 mph 29.9 mph N/A   Light Drizzle
3:35 PM 65.3 °F 61.7 °F 88% 29.81 in 7.0 mi South 16.1 mph - 0.02 in Rain Light Rain
3:55 PM 66.6 °F 61.7 °F 84% 29.79 in 10.0 mi South 9.2 mph - 0.02 in   Scattered Clouds
4:15 PM 66.7 °F 61.9 °F 84% 29.78 in 10.0 mi SSE 11.5 mph - N/A   Scattered Clouds
4:35 PM 67.5 °F 62.1 °F 83% 29.77 in 10.0 mi SSE 12.7 mph - N/A   Scattered Clouds
4:55 PM 70.0 °F 63.3 °F 79% 29.76 in 10.0 mi SSE 15.0 mph 19.6 mph N/A   Clear
5:15 PM 71.1 °F 63.3 °F 76% 29.76 in 10.0 mi South 17.3 mph 23.0 mph N/A   Clear
5:35 PM 71.8 °F 64.9 °F 79% 29.76 in 10.0 mi SSE 17.3 mph - N/A   Clear
5:55 PM 72.0 °F 65.7 °F 80% 29.76 in 10.0 mi SSE 17.3 mph - N/A   Scattered Clouds
6:15 PM 72.3 °F 66.2 °F 81% 29.75 in 10.0 mi South 16.1 mph 19.6 mph N/A   Scattered Clouds
6:35 PM 71.6 °F 66.4 °F 84% 29.74 in 10.0 mi South 18.4 mph - N/A   Scattered Clouds
6:55 PM 71.6 °F 66.6 °F 84% 29.74 in 10.0 mi South 15.0 mph - N/A   Mostly Cloudy
7:15 PM 71.1 °F 66.6 °F 86% 29.74 in 10.0 mi South 11.5 mph - N/A   Overcast
7:35 PM 70.9 °F 66.7 °F 87% 29.75 in 10.0 mi South 10.4 mph - N/A   Overcast
7:55 PM 70.0 °F 66.9 °F 90% 29.75 in 10.0 mi SSW 9.2 mph - N/A   Scattered Clouds
8:15 PM 69.8 °F 66.7 °F 90% 29.74 in 10.0 mi SSW 9.2 mph - N/A   Clear
8:35 PM 69.3 °F 66.6 °F 91% 29.75 in 10.0 mi South 10.4 mph - N/A   Clear
8:55 PM 68.9 °F 66.4 °F 92% 29.74 in 10.0 mi South 9.2 mph - N/A   Clear
9:15 PM 68.9 °F 66.4 °F 92% 29.75 in 10.0 mi South 9.2 mph - N/A   Clear
9:35 PM 69.1 °F 66.7 °F 92% 29.76 in 10.0 mi South 10.4 mph - N/A   Clear
9:55 PM 69.8 °F 67.1 °F 91% 29.74 in 10.0 mi South 9.2 mph - N/A   Clear
10:15 PM 70.0 °F 67.3 °F 91% 29.73 in 10.0 mi South 6.9 mph - N/A   Mostly Cloudy
10:35 PM 69.8 °F 67.5 °F 92% 29.72 in 10.0 mi SSE 6.9 mph - N/A   Overcast
10:55 PM 69.1 °F 67.1 °F 93% 29.72 in 10.0 mi South 5.8 mph - N/A   Mostly Cloudy
11:15 PM 68.5 °F 66.7 °F 94% 29.72 in 7.0 mi Calm Calm - N/A   Scattered Clouds
11:35 PM 68.2 °F 66.7 °F 95% 29.70 in 7.0 mi SE 4.6 mph - N/A   Clear
11:55 PM 67.1 °F 65.8 °F 96% 29.71 in 4.0 mi SE 4.6 mph - N/A   Clear